[Date Prev][Date Next][Thread Prev][Thread Next] - [Date Index][Thread Index][Author Index]
2 Line ISS Keps 1-4
- Subject: [sarex] 2 Line ISS Keps 1-4
- From: "Dave Larsen PhD" <doc@xxxxxxxxxxx>
- Date: Tue, 3 Jan 2006 20:01:59 -0800
ISS
1 25544U 98067A 06004.02197257 .00018434 00000-0 13176-3 0 850
2 25544 051.6455 311.5009 0011059 113.0293 342.2052 15.73749381407290
----
Via the sarex mailing list at AMSAT.ORG courtesy of AMSAT-NA.
To unsubscribe, send "unsubscribe sarex" to Majordomo@amsat.org
AMSAT Home